This is the latest recevied weather packets stored in our database for station/object F4GQK-13. If no packets are shown the sender has not sent any weather packets the latest 10 day(s).
| Time | Temp. | Humidity | Pressure | Rain* | Wind** | Luminosity | Snow |
|---|---|---|---|---|---|---|---|
| 1777530605 | 11.11° C | 56% | 1020.7 hPa | 0 mm | - | 113 W/m² | - |
| 1777530305 | 11.11° C | 57% | 1020.9 hPa | 0 mm | - | 101 W/m² | - |
| 1777530005 | 10.56° C | 58% | 1020.7 hPa | 0 mm | - | 92 W/m² | - |
| 1777529705 | 10.56° C | 58% | 1020.7 hPa | 0 mm | - | 82 W/m² | - |
| 1777529404 | 10.56° C | 59% | 1020.8 hPa | 0 mm | - | 73 W/m² | - |
| 1777529106 | 10° C | 58% | 1020.7 hPa | 0 mm | - | 65 W/m² | - |
| 1777528805 | 10° C | 59% | 1020.8 hPa | 0 mm | - | 57 W/m² | - |
| 1777528505 | 10° C | 60% | 1020.9 hPa | 0 mm | - | 50 W/m² | - |
| 1777528203 | 10° C | 59% | 1020.8 hPa | 0 mm | - | 44 W/m² | - |
| 1777527905 | 10° C | 60% | 1020.8 hPa | 0 mm | - | 39 W/m² | - |
| 1777527606 | 9.44° C | 60% | 1020.8 hPa | 0 mm | - | 35 W/m² | - |
| 1777527305 | 9.44° C | 60% | 1020.9 hPa | 0 mm | - | 33 W/m² | - |
| 1777527005 | 9.44° C | 61% | 1020.8 hPa | 0 mm | - | 30 W/m² | - |
| 1777526704 | 9.44° C | 61% | 1020.7 hPa | 0 mm | - | 28 W/m² | - |
| 1777526405 | 9.44° C | 61% | 1021 hPa | 0 mm | - | 26 W/m² | - |
| 1777526104 | 9.44° C | 61% | 1020.8 hPa | 0 mm | - | 23 W/m² | - |
| 1777525805 | 9.44° C | 60% | 1020.8 hPa | 0 mm | - | 21 W/m² | - |
| 1777525504 | 9.44° C | 61% | 1020.7 hPa | 0 mm | - | 19 W/m² | - |
| 1777525205 | 9.44° C | 61% | 1020.7 hPa | 0 mm | - | 17 W/m² | - |
| 1777524905 | 9.44° C | 61% | 1020.7 hPa | 0 mm | - | 14 W/m² | - |
| 1777524605 | 9.44° C | 61% | 1020.5 hPa | 0 mm | - | 12 W/m² | - |
| 1777524305 | 9.44° C | 60% | 1020.6 hPa | 0 mm | - | 9 W/m² | - |
| 1777524005 | 9.44° C | 60% | 1020.7 hPa | 0 mm | - | 7 W/m² | - |
| 1777523705 | 9.44° C | 60% | 1020.6 hPa | 0 mm | - | 5 W/m² | - |
| 1777523404 | 9.44° C | 60% | 1020.6 hPa | 0 mm | - | 3 W/m² | - |
* Rain latest hour (hover to see other rain measurements)
** Current wind speed in m/s (hover to see current wind gust speed)